Regional Weather Roundup
Issued by NWS Portland, ME

Current Version | Previous Version | Text Only | Print | Product List | Glossary Off
Versions: 1 2 3 4 5 6 7 8 9 10 11 12 13 14 15 16 17 18 19 20 21 22 23 24 25 26 27 28 29 30 31 32 33 34 35 36 37 38 39 40 41 42 43 44 45 46 47 48 49 50
373 ASUS41 KGYX 191110 RWRGYX WEATHER ROUNDUP FOR MAINE AND NEW HAMPSHIRE NATIONAL WEATHER SERVICE GRAY ME 700 AM EDT FRI OCT 19 2018 MEZ002-005-006-010-012-015-018-020-021-024-026-027-029-191200- MAINE CITY SKY/WX TMP DP RH WIND PRES REMARKS PORTLAND MOCLDY 35 24 64 CALM 30.18S SANFORD FAIR 27 24 89 SW8 30.19S BAR HARBOR CLOUDY 36 23 59 CALM 30.16S WISCASSET CLOUDY 37 27 67 CALM 30.18S ROCKLAND CLOUDY 35 28 75 W5 30.16S FRYEBURG FAIR 31 24 75 CALM 30.13F LEWISTONAUBURN CLOUDY 36 26 67 S3 30.15S AUGUSTA CLOUDY 34 23 64 S3 30.15S WATERVILLE CLOUDY 34 24 67 CALM 30.12R BANGOR CLOUDY 35 22 58 S3 30.14S GREENVILLE N/A 29 22 75 CALM 30.02F MILLINOCKET CLOUDY 31 21 66 CALM 30.11S HOULTON NOT AVBL PRESQUE ISLE FAIR 23 18 81 W3 30.07S FRENCHVILLE FAIR 24 15 68 W6 30.01F CARIBOU FAIR 23 15 71 W3 30.04F $$ NHZ002-005-008-009-011-012-014-191200- NEW HAMPSHIRE CITY SKY/WX TMP DP RH WIND PRES REMARKS PORTSMOUTH PTCLDY 30 24 79 CALM 30.18F ROCHESTER FAIR 29 25 85 CALM 30.18S NASHUA FAIR 29 27 92 E5 30.22S MANCHESTER FAIR 32 26 78 S5 30.19F CONCORD FAIR 24 22 91 NE3 30.19S LACONIA FAIR 32 26 78 W8 30.16S PLYMOUTH FAIR 24 24 96 CALM 30.17S BERLIN CLOUDY 35 25 66 SE5 30.08F WHITEFIELD CLOUDY 33 25 72 W5 30.10F JAFFREY FAIR 33 28 81 SW8 30.18F KEENE FAIR 24 23 96 CALM 30.21F LEBANON FAIR 28 23 81 CALM 30.15F MT WASHINGTON BLWGSNOW 18 18 100 W59 N/A VSB 0 WCI -7 $$ VTZ005-007-008-191200- VERMONT CITY SKY/WX TMP DP RH WIND PRES REMARKS ST JOHNSBURY N/A 34 25 69 MISG 30.10F MONTPELIER FAIR 30 27 88 S5 30.13F BURLINGTON FAIR 38 29 70 S14 30.10F $$ MAZ007-012-024-CTZ003-RIZ002-NYZ038-NYZ072-191200- SOUTHERN NEW ENGLAND AND NY CITY SKY/WX TMP DP RH WIND PRES REMARKS BOSTON FAIR 38 27 64 SW13 30.24S WORCESTER FAIR 33 26 75 W8 30.19F NANTUCKET FAIR 40 31 70 W8 30.27F PROVIDENCE FAIR 32 26 78 SW6 30.28F HARTFORD FAIR 31 27 85 S6 30.26F ALBANY FAIR 34 26 72 S8 30.23F NEW YORK CITY FAIR 47 31 53 SW8 30.30S $$ ANZ081-ANZ082-ANZ150-NHZ014-MEZ023>029-191200- COASTAL MARINE OBSERVATIONS STATION/POSITION TIME TEMP WIND PRES WAVE AIR SEA DIR/SP/G HT/PER (UTC) (F) (DEG/KT/KT) (MB) (FT/S) MOUNT DESERT ROC 1100 42 280/ 16/ 19 1021.1F MATINICUS ROCK 1000 43 280/ 14/ 16 1020.7F ISLE OF SHOALS 1000 40 240/ 17/ 18 1022.2F JEFFREYS LEDGE 1006 55 N/A 3/ 4 $$ .............KEY.............. WCI - WIND CHILL TC - TEMPERATURE IN CELSIUS VSB - VISIBILITY IN MILES HX - HEAT INDEX FAIR- INDICATES FEW OR NO CLOUDS BELOW 12,000 FT, WITH NO SIGNIFICANT WEATHER AND/OR OBSTRUCTIONS TO VISIBILITY.

USA.gov is the U.S. government's official web portal to all federal, state and local government web resources and services.